Weather History for Camdenton, MO

Change the Weather History Date:

Monday, February 4, 2013

  Actual Average (KAIZ) Record (KAIZ)
Temperature  
Mean Temperature 46 °F -  
Max Temperature 59 °F 42 °F 77 °F (2008)
Min Temperature 30 °F 24 °F -2 °F (2011)
Degree Days  
Heating Degree Days 20    
Moisture  
Dew Point 28 °F    
Average Humidity 50    
Maximum Humidity 87    
Minimum Humidity 34    
Precipitation  
Precipitation 0.00 in - - ()
Sea Level Pressure  
Sea Level Pressure 29.88 in    
Wind  
Wind Speed 11 mph (WSW)    
Max Wind Speed 17 mph    
Max Gust Speed 29 mph    
Visibility 10 miles    
Events      
Averages and records for this station are not official NWS values.
T = Trace of Precipitation, MM = Missing Value Source: NWS Daily Summary

Daily Weather History Graph

Daily Weather History Graph

Search for Another Location

Airport:

Trip Planner

Search our weather history database for the weather conditions in past years. The results will help you decide how hot, cold, wet, or windy it might be!

Date:

Astronomy

Feb. 04, 2013 Rise Set
Actual Time 7:12 AM CST 5:37 PM CST
Civil Twilight 6:44 AM CST 6:05 PM CST
Nautical Twilight 6:13 AM CST 6:36 PM CST
Astronomical Twilight 5:42 AM CST 7:07 PM CST
Moon 1:47 AM CST (2/4) 12:03 PM CST (2/4)
Length of Visible Light 11h 20m
Length of Day
10h 25m
Last Quarter, 37% of the Moon is Illuminated
Feb 4
Last Quarter
Feb 10
New
Feb 17
First Quarter
Feb 25
Full
Mar 4
Last Quarter

Hourly Weather History & Observations

Time (CST) Temp. Windchill Dew Point Humidity Pressure Visibility Wind Dir Wind Speed Gust Speed Precip Events Conditions
12:15 AM 44.6 °F 39.2 °F 23.0 °F 43% 29.92 in 10.0 mi South 10.4 mph - N/A   Clear
12:35 AM 46.4 °F 41.5 °F 21.2 °F 37% 29.92 in 10.0 mi South 10.4 mph 17.3 mph N/A   Clear
12:55 AM 46.4 °F 41.5 °F 21.2 °F 37% 29.91 in 10.0 mi South 10.4 mph 17.3 mph N/A   Clear
1:15 AM 46.4 °F 41.1 °F 21.2 °F 37% 29.90 in 10.0 mi South 11.5 mph 17.3 mph N/A   Clear
1:35 AM 46.4 °F 40.4 °F 21.2 °F 37% 29.89 in 10.0 mi South 13.8 mph 19.6 mph N/A   Clear
1:55 AM 48.2 °F - 21.2 °F 34% 29.89 in 10.0 mi South 13.8 mph 19.6 mph N/A   Clear
2:15 AM 48.2 °F - 21.2 °F 34% 29.87 in 10.0 mi South 13.8 mph 23.0 mph N/A   Clear
2:35 AM 48.2 °F - 23.0 °F 37% 29.87 in 10.0 mi South 12.7 mph 20.7 mph N/A   Clear
2:55 AM 48.2 °F - 23.0 °F 37% 29.86 in 10.0 mi South 17.3 mph 21.9 mph N/A   Clear
3:15 AM 48.2 °F - 23.0 °F 37% 29.85 in 10.0 mi South 13.8 mph 25.3 mph N/A   Clear
4:55 AM 50.0 °F - 24.8 °F 37% 29.82 in 10.0 mi South 11.5 mph 18.4 mph N/A   Mostly Cloudy
5:15 AM 51.8 °F - 24.8 °F 35% 29.82 in 10.0 mi South 16.1 mph 24.2 mph N/A   Mostly Cloudy
5:35 AM 51.8 °F - 24.8 °F 35% 29.82 in 10.0 mi South 15.0 mph 21.9 mph N/A   Scattered Clouds
5:55 AM 51.8 °F - 24.8 °F 35% 29.81 in 10.0 mi South 13.8 mph 20.7 mph N/A   Clear
6:15 AM 51.8 °F - 24.8 °F 35% 29.80 in 10.0 mi South 13.8 mph 25.3 mph N/A   Clear
6:35 AM 51.8 °F - 26.6 °F 38% 29.81 in 10.0 mi SSW 17.3 mph 28.8 mph N/A   Clear
6:55 AM 51.8 °F - 26.6 °F 38% 29.80 in 10.0 mi South 15.0 mph 21.9 mph N/A   Mostly Cloudy
7:15 AM 51.8 °F - 26.6 °F 38% 29.80 in 10.0 mi SSW 10.4 mph 21.9 mph N/A   Overcast
7:35 AM 50.0 °F - 26.6 °F 40% 29.82 in 10.0 mi SSW 11.5 mph - N/A   Mostly Cloudy
7:55 AM 50.0 °F - 26.6 °F 40% 29.84 in 10.0 mi West 9.2 mph - N/A   Overcast
8:15 AM 50.0 °F - 26.6 °F 40% 29.85 in 10.0 mi SW 8.1 mph - N/A   Mostly Cloudy
8:35 AM 50.0 °F - 28.4 °F 43% 29.85 in 10.0 mi SW 9.2 mph - N/A   Scattered Clouds
8:55 AM 50.0 °F - 28.4 °F 43% 29.86 in 10.0 mi WSW 8.1 mph - N/A   Clear
9:15 AM 50.0 °F - 28.4 °F 43% 29.86 in 10.0 mi SW 8.1 mph - N/A   Clear
9:35 AM 50.0 °F - 30.2 °F 47% 29.86 in 10.0 mi SW 10.4 mph 16.1 mph N/A   Clear
9:55 AM 51.8 °F - 30.2 °F 44% 29.86 in 10.0 mi SW 8.1 mph - N/A   Clear
10:15 AM 51.8 °F - 30.2 °F 44% 29.86 in 10.0 mi SW 12.7 mph 20.7 mph N/A   Clear
10:35 AM 53.6 °F - 30.2 °F 41% 29.86 in 10.0 mi SW 12.7 mph 23.0 mph N/A   Clear
10:55 AM 53.6 °F - 32.0 °F 44% 29.85 in 10.0 mi WSW 13.8 mph 20.7 mph N/A   Clear
11:15 AM 55.4 °F - 32.0 °F 41% 29.85 in 10.0 mi WSW 10.4 mph 24.2 mph N/A   Clear
11:35 AM 55.4 °F - 32.0 °F 41% 29.85 in 10.0 mi WSW 15.0 mph 25.3 mph N/A   Clear
11:55 AM 55.4 °F - 30.2 °F 38% 29.84 in 10.0 mi West 15.0 mph 25.3 mph N/A   Clear
12:15 PM 55.4 °F - 30.2 °F 38% 29.83 in 10.0 mi WSW 12.7 mph 20.7 mph N/A   Clear
12:35 PM 57.2 °F - 30.2 °F 36% 29.83 in 10.0 mi West 13.8 mph 20.7 mph N/A   Clear
12:55 PM 57.2 °F - 30.2 °F 36% 29.83 in 10.0 mi WSW 15.0 mph 20.7 mph N/A   Clear
1:15 PM 57.2 °F - 30.2 °F 36% 29.83 in 10.0 mi West 10.4 mph 21.9 mph N/A   Clear
1:35 PM 59.0 °F - 30.2 °F 34% 29.83 in 10.0 mi WNW 13.8 mph 20.7 mph N/A   Clear
1:55 PM 59.0 °F - 30.2 °F 34% 29.82 in 10.0 mi West 13.8 mph - N/A   Clear
2:15 PM 57.2 °F - 30.2 °F 36% 29.82 in 10.0 mi West 15.0 mph 21.9 mph N/A   Clear
2:35 PM 57.2 °F - 32.0 °F 38% 29.82 in 10.0 mi WNW 12.7 mph 17.3 mph N/A   Clear
2:55 PM 57.2 °F - 32.0 °F 38% 29.82 in 10.0 mi WNW 10.4 mph 18.4 mph N/A   Clear
3:15 PM 55.4 °F - 30.2 °F 38% 29.83 in 10.0 mi WNW 11.5 mph 17.3 mph N/A   Clear
3:35 PM 55.4 °F - 30.2 °F 38% 29.83 in 10.0 mi NW 10.4 mph - N/A   Clear
4:15 PM 53.6 °F - 30.2 °F 41% 29.84 in 10.0 mi NW 9.2 mph - N/A   Clear
4:35 PM 51.8 °F - 30.2 °F 44% 29.85 in 10.0 mi NNW 11.5 mph - N/A   Clear
4:55 PM 50.0 °F - 30.2 °F 47% 29.86 in 10.0 mi North 11.5 mph - N/A   Clear
5:15 PM 50.0 °F - 32.0 °F 50% 29.87 in 10.0 mi NNW 9.2 mph - N/A   Clear
5:35 PM 46.4 °F 41.9 °F 32.0 °F 57% 29.88 in 10.0 mi NNW 9.2 mph - N/A   Clear
5:55 PM 44.6 °F 39.2 °F 32.0 °F 61% 29.89 in 10.0 mi NNW 10.4 mph - N/A   Clear
6:15 PM 42.8 °F 37.5 °F 32.0 °F 66% 29.91 in 10.0 mi NNW 9.2 mph - N/A   Clear
6:35 PM 41.0 °F 35.2 °F 32.0 °F 70% 29.92 in 10.0 mi North 9.2 mph - N/A   Clear
6:55 PM 37.4 °F 31.4 °F 30.2 °F 75% 29.92 in 10.0 mi NNW 8.1 mph - N/A   Clear
7:15 PM 35.6 °F 29.9 °F 30.2 °F 81% 29.93 in 10.0 mi North 6.9 mph - N/A   Clear
7:35 PM 35.6 °F 26.6 °F 30.2 °F 81% 29.94 in 10.0 mi NNW 13.8 mph - N/A   Clear
7:55 PM 33.8 °F 28.6 °F 28.4 °F 81% 29.94 in 10.0 mi NNW 5.8 mph - N/A   Clear
8:15 PM 33.8 °F 26.4 °F 28.4 °F 81% 29.95 in 10.0 mi NNW 9.2 mph - N/A   Clear
8:35 PM 33.8 °F 25.8 °F 28.4 °F 81% 29.96 in 10.0 mi NNW 10.4 mph - N/A   Clear
8:55 PM 33.8 °F 28.6 °F 28.4 °F 81% 29.96 in 10.0 mi North 5.8 mph - N/A   Clear
9:15 PM 32.0 °F 27.5 °F 28.4 °F 87% 29.96 in 10.0 mi North 4.6 mph - N/A   Clear
9:35 PM 32.0 °F - 26.6 °F 80% 29.96 in 10.0 mi Calm Calm - N/A   Clear
9:55 PM 32.0 °F - 26.6 °F 80% 29.96 in 10.0 mi Calm Calm - N/A   Clear
10:15 PM 32.0 °F - 26.6 °F 80% 29.96 in 10.0 mi Calm Calm - N/A   Clear
10:35 PM 32.0 °F - 26.6 °F 80% 29.96 in 10.0 mi Calm Calm - N/A   Clear
10:55 PM 32.0 °F - 26.6 °F 80% 29.97 in 10.0 mi Calm Calm - N/A   Clear
11:15 PM 32.0 °F - 26.6 °F 80% 29.96 in 10.0 mi Calm Calm - N/A   Clear
11:35 PM 32.0 °F 28.7 °F 26.6 °F 80% 29.96 in 10.0 mi NW 3.5 mph - N/A   Clear
11:55 PM 30.2 °F - 26.6 °F 86% 29.96 in 10.0 mi Calm Calm - N/A   Clear